Regional Weather Roundup
Issued by NWS Portland, ME

Home | Current Version | Previous Version | Text Only | Print | Product List | Glossary On
Versions: 1 2 3 4 5 6 7 8 9 10 11 12 13 14 15 16 17 18 19 20 21 22 23 24 25 26 27 28 29 30 31 32 33 34 35 36 37 38 39 40 41 42 43 44 45 46 47 48 49 50
000
ASUS41 KGYX 230210
RWRGYX
WEATHER ROUNDUP FOR MAINE AND NEW HAMPSHIRE
NATIONAL WEATHER SERVICE GRAY ME
900 PM EST SUN JAN 22 2017

MEZ002-005-006-010-012-015-018-020-021-024-026-027-029-230300-
MAINE

CITY           SKY/WX    TMP DP  RH WIND       PRES   REMARKS
PORTLAND       CLOUDY    35  24  64 NE14      30.03R
SANFORD        CLOUDY    35  29  78 NE13      30.00
BAR HARBOR     CLOUDY    32  22  66 NE8       30.06R
WISCASSET      CLOUDY    34  22  61 VRB3      30.05S
ROCKLAND       CLOUDY    33  23  66 NE10      30.05R
FRYEBURG       CLOUDY    34  26  72 E3        30.02R
LEWISTONAUBURN CLOUDY    34  23  64 NE7       30.03R
AUGUSTA        CLOUDY    32  19  58 NE10      30.04R
WATERVILLE     CLOUDY    31  22  69 NE9G16    30.02S
BANGOR         CLOUDY    30  21  69 N8        30.07R
GREENVILLE       N/A     23  17  78 NE7       30.01R
MILLINOCKET    CLOUDY    28  18  66 NE6       30.09R
HOULTON        CLOUDY    28  20  71 N5        30.08R
PRESQUE ISLE   CLOUDY    27  19  72 N9        30.11R
FRENCHVILLE    CLOUDY    24  16  71 N8        30.09R
CARIBOU        CLOUDY    27  18  69 N7        30.09R
$$

NHZ002-005-008-009-011-012-014-230300-
NEW HAMPSHIRE

CITY           SKY/WX    TMP DP  RH WIND       PRES   REMARKS
PORTSMOUTH     CLOUDY    37  33  86 NE8       29.98R
ROCHESTER      CLOUDY    36  28  73 NE5       29.99R
NASHUA         MIX PCPN  34  33  96 N3        29.98R
MANCHESTER     FLURRIES  34  31  88 N6        29.96S
CONCORD        LGT SNOW  34  31  88 CALM      29.99R FOG
LACONIA        CLOUDY    34  28  79 NE13      29.99R
PLYMOUTH       CLOUDY    35  30  80 CALM      29.98R
BERLIN         CLOUDY    33  26  75 SE10      29.95S
WHITEFIELD     CLOUDY    35  26  69 E7        29.93R
JAFFREY        CLOUDY    33  31  92 MISG      29.94R FOG
KEENE          CLOUDY    34  33  96 CALM      29.96R
LEBANON        CLOUDY    36  30  79 S5        29.96R
MT WASHINGTON  CLOUDY    25  23  93 NW20        N/A  WCI  11
$$

VTZ005-007-008-230300-
VERMONT

CITY           SKY/WX    TMP DP  RH WIND       PRES   REMARKS
ST JOHNSBURY     N/A     35  31  85 MISG      29.92R
MONTPELIER     CLOUDY    34  33  96 S10       29.94R
BURLINGTON     CLOUDY    35  32  88 CALM      29.90R
$$

MAZ007-012-024-CTZ003-RIZ002-NYZ038-NYZ072-230300-
SOUTHERN NEW ENGLAND AND NY

CITY           SKY/WX    TMP DP  RH WIND       PRES   REMARKS
BOSTON         CLOUDY    41  37  86 NE17      29.96R
WORCESTER      MIX PCPN  35  33  92 NE12G21   29.89R VSB 1/2
NANTUCKET      CLOUDY    44  39  82 E14G26    29.86R
PROVIDENCE     DRIZZLE   41  39  93 NE14      29.91R FOG
HARTFORD       CLOUDY    40  36  86 NE15      29.89S
ALBANY         DRIZZLE   38  34  85 N7        29.87R
NEW YORK CITY  CLOUDY    49  41  74 NE17      29.78R
$$

ANZ081-ANZ082-ANZ150-NHZ014-MEZ023>029-230300-
COASTAL MARINE OBSERVATIONS

STATION/POSITION TIME  TEMP    WIND        PRES    WAVE
                       AIR SEA DIR/SP/G            HT/PER
                 (UTC) (F)     (DEG/KT/KT) (MB)    (FT/S)
MOUNT DESERT ROC 0100   35                 1016.4R
MATINICUS ROCK   0100   36      40/ 23/ 25 1015.8R
ISLE OF SHOALS   0100   40      60/ 23/ 26 1013.5R
CASHES LEDGE BUO 0050   40 46   70/ 17/ 21 1014.7    6/13
GEORGES BANK BUO 0050   40 42              1011.6    6/11
$$

.............KEY..............
   WCI - WIND CHILL
   TC  - TEMPERATURE IN CELSIUS
   VSB - VISIBILITY IN MILES
   HX  - HEAT INDEX
   FAIR- INDICATES FEW OR NO CLOUDS BELOW 12,000 FT, WITH NO
         SIGNIFICANT WEATHER AND/OR OBSTRUCTIONS TO VISIBILITY.






USA.gov is the U.S. government's official web portal to all federal, state and local government web resources and services.